Other Public Products
Issued by NWS Charleston, SC

Current Version | Previous Version | Graphics & Text | Print | Product List | Glossary On
Versions: 1 2 3 4 5 6 7 8 9 10 11 12 13 14 15 16 17 18 19 20 21 22 23 24 25 26 27 28 29 30 31 32 33 34 35 36 37 38 39 40 41 42 43 44 45 46 47 48 49 50
000 FPUS82 KCHS 132326 OPUCHS TEST...KCHS/KSAV Gateway Observations...TEST National Weather Service Charleston SC 600 PM EST WED DEC 13 2017 NOTE: "fair" indicates few or no clouds below 12,000 feet with no significant weather and/or obstructions to visibility. SCZ050-WAZ558-NCZ071-TXZ119-213-PAZ071-DCZ001-FLZ074-172-MI076- NYZ176-178-MAZ016-IL014-TNZ027-NJZ106-GAZ044-MD014-140000- ...Gateway Observations for Charleston International... CITY SKY/WX TMP DP RH WIND PRES REMARKS Chas Airport CLEAR 41 25 53 S9 29.96R Seattle MOCLDY 46 37 71 N12 30.36F Charlotte PTCLDY 42 15 33 SW13 29.83R Dallas DFW PTCLDY 71 21 15 SW7 29.85F Dallas Love PTCLDY 73 23 15 W6 29.87S Philladelphia PTCLDY 28 3 34 W13 29.75R WCI 17 Wash National MOCLDY 34 8 33 S8 29.76F WCI 27 Baltimore MOCLDY 29 9 43 SE5 29.75S WCI 24 Miami PTCLDY 63 34 33 NW5 30.06R Detroit SNOW 24 20 84 SE10 29.47F VSB 1/2 WCI 14 Newark PTCLDY 28 6 39 W15G26 29.67R WCI 16 Laguardia CLEAR 30 7 37 W20G28 29.65R WCI 17 J F K PTCLDY 29 8 41 W23G32 29.67R WCI 15 Boston Logan PTCLDY 24 9 52 W21G36 29.43R WCI 9 Ft. Lauderdale PTCLDY 61 39 44 W7 30.05R Chicago O`Hare CLOUDY 34 23 64 NW26G37 29.37R WCI 21 Chicago Midway FLURRIES 35 26 69 NW16G31 29.37R WCI 25 Houston Bush MOCLDY 56 33 42 S3 30.03F Houston Hobby CLOUDY 55 35 47 SW6 30.03F Nashville PTCLDY 49 17 28 SW9 29.73R Atlanta CLEAR 45 16 31 SW6 29.89F $$ GAZ044-118-TXZ119-213-NCZ071-DCZ001-MDZ014-506-PAZ021-071-NJZ106- NYZ176-178-MAZ106-OHZ011-021-055-MIZ076-KYZ091-ILZ014-INZ047- MNZ060-ONZ431-140000- ...Gateway Observations for Savannah International... CITY SKY/WX TMP DP RH WIND PRES REMARKS Savannah Arpt CLEAR 45 25 45 S5 29.98S SMOKE Atlanta CLEAR 45 16 31 SW6 29.89F Charlotte PTCLDY 42 15 33 SW13 29.83R Dallas DFW PTCLDY 71 21 15 SW7 29.85F Houston Bush MOCLDY 56 33 42 S3 30.03F Wash National MOCLDY 34 8 33 S8 29.76F WCI 27 Wash Dulles CLOUDY 32 8 36 S8 29.73F WCI 25 Baltimore MOCLDY 29 9 43 SE5 29.75S WCI 24 Philadelphia PTCLDY 28 3 34 W13 29.75R WCI 17 Newark PTCLDY 28 6 39 W15G26 29.67R WCI 16 Laguardia CLEAR 30 7 37 W20G28 29.65R WCI 17 J F K PTCLDY 29 8 41 W23G32 29.67R WCI 15 Boston PTCLDY 24 9 52 W21G36 29.43R WCI 9 Pittsburg CLOUDY 23 17 78 SE14 29.53F WCI 11 Akron CLOUDY 21 14 74 S16 29.49F WCI 7 Cleveland LGT SNOW 22 16 78 SE9 29.52R WCI 12 Cincinnati CLOUDY 39 15 37 SW17G23 29.47S WCI 30 Columbus CLOUDY 29 14 52 SW12G28 29.50R WCI 20 Detroit SNOW 24 20 84 SE10 29.47F VSB 1/2 WCI 14 Chicago O`Hare CLOUDY 34 23 64 NW26G37 29.37R WCI 21 Minneapolis FLURRIES 24 18 77 N18 29.77R WCI 10 Indianapolis CLOUDY 42 26 53 SW20 29.42F Toronto Canada CLOUDY 16 5 62 NE6 29.59F WCI 7 $$

USA.gov is the U.S. government's official web portal to all federal, state and local government web resources and services.